{"data":{"norad_id":65358,"intl_designator":"2025-190H","name":"STARLINK-34782","alt_names":[],"object_type":"PAYLOAD","status":"ACTIVE","operator":null,"country":"US","launch_date":"2025-08-28","launch_site_code":"AFETR","launch_vehicle":null,"mission":null,"orbit_class":"UNKNOWN","rcs_meters":null,"size_class":null,"mass_kg":null,"dimensions":null,"purposes":["comms"],"wikipedia_slug":null,"has_3d_model":false,"image_url":null,"decayed_at":null,"tle_current":{"epoch":"2026-09-20T22:14:30.772320Z","epoch_age_seconds":80683,"freshness":"FRESH","line1":"1 65358U 25190H   26263.92674505 -.00000973  00000+0 -17687-4 0  9994","line2":"2 65358  53.1597 339.4302 0000719  91.3289 268.7796 15.34392199 59670","mean_motion":15.34392199,"eccentricity":7.19e-5,"inclination_deg":53.1597,"raan_deg":339.4302,"arg_perigee_deg":91.3289,"mean_anomaly_deg":268.7796,"bstar":-1.7687e-5,"rev_number":5967,"period_min":93.848235212515,"perigee_km":462.23456844096,"apogee_km":463.21828460169,"semimajor_km":6840.8634265213,"source":"CELESTRAK","updated_at":"2026-09-21T09:00:35.576386Z"}}}